TITAN 3C TRANSTAGE R/B, 2770

Orbit data source: Space-Track

TITAN 3C TRANSTAGE R/B, 2770 is space debris in HEO originally from a launch on Fri, 28 Apr 1967 UTC launched from the Air Force Eastern Test Range (AFETR). Debris objects in space refer to the collection of defunct objects orbiting the Earth. Examples of debris include non-operational satellites, rocket bodies, and fragments generated from explosions, collisions, or faulty payload assembly.

Loading next visibility...
Identifier
2770, 1967-040F
Orbit
HEO
Country
Flag of USUS
Related business
Manufacturer
Martin Marietta
Mission
Spacecraft
Bus & Motor
TRANSTAGE, Unknown motor
Mass
3,103 kg wet, 3,103 kg dry
Launch date (UTC)
1967-04-28 (59 years ago)
Launch vehicle
Unknown
Launch site
Air Force Eastern Test Range (AFETR)
Object type
Payload
Rocket body
Debris
Shape & HBR
Unknown
Radar Cross Section
Large (>1 m²)

Expand to show TLE details & history
Last TLE update: in 1 day

TLE from in 1 day
0 TITAN 3C TRANSTAGE R/B
1  2770U 67040F   26039.70339526 -.00000277  00000-0  00000+0 0  9994
2  2770  16.8393 211.2968 7880913 348.1635 359.0948  0.50947008 22648
Epoch: 2026-02-08T16:52Z
TLE epoch observation values (Epoch: 2026-02-08T16:52:53.350Z)
Latitude
-4.08139°
Longitude
165.55731°
Altitude
7,783.384 km
Speed
7.09 km/s
True Right ascension
13h 10m 21s
True Declination
-4° 04' 09"
Sunlit
Object was in daylight at epoch
Visualization orbit readout
Latitude
Unknown
Longitude
Unknown
Altitude
Unknown
Speed
Unknown
Apparent Right ascension
Unknown
Apparent Declination
Unknown
Sunlit
N/A
Visualization observer readout
Local Sidereal Time
13:15:56
Azimuth
Unknown
Elevation
Unknown
Doppler factor
Unknown
Orbital elements
Apogee altitude
112,033.855 km
Perigee altitude
7,655.001 km
Semi-major axis
66,222.565 km
Eccentricity
0.78809
Inclination
16.8393°
RAAN
211.2968°
Arg. of periapsis
348.1635°
True anomaly
347.67594°
Mean anomaly
359.0948°
Eccentric anomaly
355.74291°
Mean motion
0.12736 °/min
Orbital period
2,826.63 mins
BSTAR
0
Loading maneuver chart data...
Computing Atmospheric mass density...
Loading historical data...
Loading historical data...
Loading historical data...
Loading historical data...
Loading historical data...
Loading historical data...
Loading historical data...

Documentation

Showing up to 5 results
|